Terug naar catalogus

COSMOS 397 DEB

ActiefLEO
NORAD 5012·DEBRIS·🇷🇺 Russia

Gelanceerd Feb 25, 1971 vanaf Baikonur Cosmodrome

Loading…

Volgende Passages

TLE

Source: Space-Track
1  5012U 71015F   26224.02050325  .00002739  00000-0  38233-3 0  9998
2  5012  65.7308 179.1276 0337851 175.9897 184.4043 14.47198172708569

Volg COSMOS 397 DEB in realtime met AllMySat

Download on the App Store